Location: Caltech
(34.1382°N, 118.1253°W)
Time: 16:27:15
(UTC-07:00)

Cosmos 44 Rocket - Visible Passes

Search period start: 31 August 2016 00:00
Search period end: 10 September 2016 00:00
Orbit: 639 x 752 km, 65.1° (Epoch: 31 August)

Date Brightness Start Highest point End Pass type
(mag) Time Alt. Az. Time Alt. Az. Time Alt. Az.
01 Sep 6.2 05:44:18 10° SE 05:47:31 17° ESE 05:50:46 10° ENE visible
03 Sep 5.8 05:25:45 10° SSE 05:29:43 23° ESE 05:33:43 10° ENE visible
05 Sep 5.2 05:07:27 10° S 05:11:55 30° ESE 05:16:26 10° NE visible
06 Sep 6.3 04:11:36 10° ESE 04:12:47 11° ESE 04:13:58 10° E visible
06 Sep 3.4 05:48:27 10° SSW 05:53:38 77° WNW 05:58:52 10° NNE visible
07 Sep 4.6 04:49:43 12° S 04:54:09 40° ESE 04:59:01 10° NE visible
08 Sep 5.9 03:52:44 12° SE 03:54:57 15° ESE 03:57:51 10° ENE visible
08 Sep 3.6 05:31:31 14° SW 05:35:58 58° WNW 05:41:08 10° NNE visible
09 Sep 4.0 04:34:25 34° S 04:36:25 54° ESE 04:41:30 10° NE visible
